Location: Newark
(42.8481°N, 0.4872°E)
Time: 12:48:56
(UTC+00:00)

A-11 Canister half - Pass Details

Date: 29 October 2020
Orbit: 1525 x 1684 km, 47.3° (Epoch: 01 December)

Event Time Altitude Azimuth Distance (km) Brightness Sun altitude
Rises 11:48:05 0° 188° (S) 4,831 12.7 33.4°
Reaches altitude 10° 11:52:09 10° 174° (S) 3,821 12.5 33.4°
Maximum altitude 11:59:02 22° 128° (SE) 2,924 11.1 33.3°
Drops below altitude 10° 12:05:46 10° 82° (E) 3,745 11.0 33.2°
Sets 12:09:38 0° 68° (ENE) 4,712 11.3 33.1°
